订阅

最新发表

标题 版块/群组 作者 回复/查看 最后发表
u81afsh l195lt 通知 LarikJoime 2020-10-3 1761 n锋扬彬j 2020-10-3 12:53
n56dewe l47lri 通知 LarikJoime 2020-10-3 1713 y官兴俭s 2020-10-3 12:47
h95wlre v154cq 通知 LarikJoime 2020-10-3 1704 y官兴俭s 2020-10-3 12:41
h923iin t63fqg 通知 LarikJoime 2020-10-3 1730 j修银洁j 2020-10-3 12:36
e94hlnq b51kfa 通知 LarikJoime 2020-10-3 1725 t鑫馥钰o 2020-10-3 12:24
w90cejb u44cae 通知 LarikJoime 2020-10-3 1727 c达龙萍j 2020-10-3 12:19
k89tyu4 s555gl 通知 LarikJoime 2020-10-3 1723 w二小桃z 2020-10-3 12:13
casino games online 通知 LeopoldoMa 2020-10-3 1767 c广文荡w 2020-10-3 12:10
r29byeh c32aap 通知 LarikJoime 2020-10-3 1703 p娥非娟r 2020-10-3 12:06
i879uy2 n40tti 通知 LarikJoime 2020-10-3 1687 z不能汞q 2020-10-3 12:02
d13emdp t75xlb 通知 LarikJoime 2020-10-3 1680 9淙凇召b 2020-10-3 11:55
a34mxgj t474ai 通知 LarikJoime 2020-10-3 1672 n隆攀白o 2020-10-3 11:51
l16yuyg g11kld 通知 LarikJoime 2020-10-3 1672 8年美圣c 2020-10-3 11:45
i72yurz z857kq 通知 LarikJoime 2020-10-3 1625 n隆攀白o 2020-10-3 11:40
v43zlim n92gli 通知 LarikJoime 2020-10-3 1692 0发宇艳g 2020-10-3 11:34
s83bwy0 o198sf 通知 LarikJoime 2020-10-3 1616 j修银洁j 2020-10-3 11:30
xeueysgn 通知 ZakNex 2020-10-3 1626 t鑫馥钰o 2020-10-3 11:28
f330ph8 t501fq 通知 LarikJoime 2020-10-3 1701 w二小桃z 2020-10-3 11:22
buhvcbsz 通知 WimNex 2020-10-3 1664 c广文荡w 2020-10-3 11:19
e66gqw6 j77ttf 通知 LarikJoime 2020-10-3 1688 0发宇艳g 2020-10-3 11:20
a737brd j58szd 通知 LarikJoime 2020-10-3 1727 c广文荡w 2020-10-3 11:12
f938tvb j84suj 通知 LarikJoime 2020-10-3 1699 j修银洁j 2020-10-3 11:08
w83yncq h13gum 通知 LarikJoime 2020-10-3 1658 n锋扬彬j 2020-10-3 11:00
u42pzge j85ccn 通知 LarikJoime 2020-10-3 1685 0发宇艳g 2020-10-3 10:55
n87tzrs d889yw 通知 LarikJoime 2020-10-3 1733 0发宇艳g 2020-10-3 10:49
m65ugxr v93jra 通知 LarikJoime 2020-10-3 1680 0发宇艳g 2020-10-3 10:44
j153vtq c47qmy 通知 LarikJoime 2020-10-3 1714 w赐源带f 2020-10-3 10:39
e358wbv s28grz 通知 LarikJoime 2020-10-3 1665 p娥非娟r 2020-10-3 10:35
a82ezhq g96brr 通知 LarikJoime 2020-10-3 1710 s朝歌驰i 2020-10-3 10:37
q936uzs l965dz 通知 LarikJoime 2020-10-3 1624 n隆攀白o 2020-10-3 10:27
e59tmv6 z55nkq 通知 LarikJoime 2020-10-3 1783 t鑫馥钰o 2020-10-3 10:34
t42vrc2 f94vrt 通知 LarikJoime 2020-10-3 1625 y官兴俭s 2020-10-3 10:25
v772qty m45tca 通知 LarikJoime 2020-10-3 1655 s朝歌驰i 2020-10-3 10:32
obbbyaha 通知 KiaNex 2020-10-3 1637 c广文荡w 2020-10-3 10:10
j50nqae w89dhd 通知 LarikJoime 2020-10-3 1642 n锋扬彬j 2020-10-3 10:30
又一个免费音乐资源网站倒下,What.cd今天关闭 2020年10月03日 通知 j修银洁j 2020-10-3 1590 c琪告陇r 2020-10-3 10:20
q21gdhn b42foi 通知 LarikJoime 2020-10-3 1649 w赐源带f 2020-10-3 10:11
x34clxe r317rd 通知 LarikJoime 2020-10-3 1677 8年美圣c 2020-10-3 10:06
t602aa4 t98kda 通知 LarikJoime 2020-10-3 1656 p代彬子p 2020-10-3 10:18
g93mvd3 f49kgl 通知 LarikJoime 2020-10-3 1615 n锋扬彬j 2020-10-3 10:22
online casino 通知 LeopoldoMa 2020-10-3 1707 z不能汞q 2020-10-3 10:13
i99ivut n89fua 通知 LarikJoime 2020-10-3 1689 g佳福霏l 2020-10-3 10:01
j12iaqx q27yhw 通知 LarikJoime 2020-10-3 1699 n锋扬彬j 2020-10-3 10:15
irsefmebq 通知 PaulNex 2020-10-3 1628 0发宇艳g 2020-10-3 10:23
h572cmp h353bp 通知 LarikJoime 2020-10-3 1648 w赐源带f 2020-10-3 10:16
v57ixof k14wqv 通知 LarikJoime 2020-10-3 0665 LarikJoime 2020-10-3 09:15
u13nifj l40ueh 通知 LarikJoime 2020-10-3 0636 LarikJoime 2020-10-3 09:09
m71rzgf n64fbl 通知 LarikJoime 2020-10-3 1642 p代彬子p 2020-10-3 10:08
k860hpt g60ver 通知 LarikJoime 2020-10-3 0659 LarikJoime 2020-10-3 08:58
m62cbj4 a86ruk 通知 LarikJoime 2020-10-3 1649 w二小桃z 2020-10-3 10:05

Archiver|手机版|小黑屋|DiscuzX

GMT+8, 2021-12-2 21:39 , Processed in 0.048367 second(s), 12 queries .

Powered by Discuz! X3.4

© 2001-2017 Comsenz Inc. Template By 【未来科技】【 www.wekei.cn 】

返回顶部